{"data":{"norad_id":63775,"intl_designator":"2025-091A","name":"STARLINK-33932","alt_names":[],"object_type":"PAYLOAD","status":"ACTIVE","operator":null,"country":"US","launch_date":"2025-05-02","launch_site_code":"AFETR","launch_vehicle":null,"mission":null,"orbit_class":"UNKNOWN","rcs_meters":null,"size_class":null,"mass_kg":null,"dimensions":null,"purposes":["comms"],"wikipedia_slug":null,"has_3d_model":false,"image_url":null,"decayed_at":null,"tle_current":{"epoch":"2026-09-20T08:14:01.050144Z","epoch_age_seconds":163453,"freshness":"FRESH","line1":"1 63775U 25091A   26263.34306771  .00016558  00000+0  60971-3 0  9995","line2":"2 63775  43.0022  33.0756 0001107 178.5735 181.5121 15.27589778 78711","mean_motion":15.27589778,"eccentricity":0.0001107,"inclination_deg":43.0022,"raan_deg":33.0756,"arg_perigee_deg":178.5735,"mean_anomaly_deg":181.5121,"bstar":0.00060971,"rev_number":7871,"period_min":94.266145318498,"perigee_km":482.26028728653,"apogee_km":483.77934740589,"semimajor_km":6861.1568173462,"source":"CELESTRAK","updated_at":"2026-09-21T09:00:35.097699Z"}}}